Location: Kailua
(21.4020°N, 157.7390°W)
Time: 01:38:25
(UTC-10:00)

Daily predictions for brighter satellites

Satellite Brightness Start Highest point End
(mag) Time Altitude Azimuth Time Altitude Azimuth Time Altitude Azimuth
ATLAS 3B R/B 3.2 03:23:25 56° N 03:23:25 56° N 03:28:50 10° NNE
NOSS 3-2 (A) 4.2 03:28:43 46° NE 03:28:43 46° NE 03:32:58 10° NNE
Centaur D-1AR AC-36 3.5 03:43:08 27° ESE 03:43:08 27° ESE 03:46:40 10° ESE
CENTAUR R/B 4.2 03:41:57 18° SE 03:44:02 21° ESE 03:48:25 10° ENE
CZ-3C R/B 3.2 03:46:06 20° E 03:46:06 20° E 03:48:16 10° E
Hubble Space Telescope 2.9 03:54:05 22° ESE 03:54:05 22° ESE 03:55:38 10° ESE
USA 215 3.9 03:46:21 10° NNE 03:52:00 39° NW 03:52:00 39° NW
SL-8 R/B 4.3 03:58:30 54° NE 03:58:30 54° NE 04:03:10 10° ESE
Cosmos 990 Rocket 4.2 03:56:10 10° N 04:01:17 66° ENE 04:03:20 36° SE
Cosmos 1980 Rocket 4.1 04:00:31 10° NNW 04:01:44 17° NNW 04:01:44 17° NNW
Palapa 6 Rocket 3.8 04:08:54 47° SE 04:08:54 47° SE 04:12:49 10° ESE
Cosmos 1707 3.7 04:10:14 46° ENE 04:10:14 46° ENE 04:13:30 10° NNE
Cosmos 2298 Rocket 4.1 04:11:36 10° N 04:16:55 78° ENE 04:22:11 10° SSE
SL-16 R/B 3.2 04:12:40 10° N 04:18:05 46° ENE 04:23:29 10° SE
ADEOS II 3.3 04:18:51 10° NNW 04:21:53 26° NW 04:21:53 26° NW
ATLAS 5 CENTAUR R/B 2.9 04:17:53 33° WSW 04:24:45 71° S 04:29:56 10° E
Spot 3 4.5 04:19:27 10° N 04:24:48 83° WNW 04:26:40 42° SSW
SWIFT 3.4 04:26:09 32° SSE 04:26:09 32° SSE 04:28:55 10° SE
Cosmos 1825 Rocket 4.3 04:25:41 19° SSE 04:28:36 51° E 04:32:46 10° NNE
Cosmos 1833 4.3 04:28:23 49° WSW 04:29:32 58° WNW 04:35:15 10° N
MOS 1-B 4.2 04:24:28 10° N 04:30:16 74° WNW 04:32:59 33° SSW
Cosmos 1953 2.5 04:27:19 10° N 04:31:22 72° E 04:34:32 16° SSE
Okean O Rocket 2.2 04:28:07 10° NNE 04:32:22 54° E 04:35:38 16° S
PSLV R/B 3.5 04:30:05 10° N 04:33:44 72° WNW 04:33:44 72° WNW
Meteor 1-31 Rocket 3.8 04:30:29 10° NNE 04:34:09 43° E 04:37:05 15° SSE
Cosmos 2322 Rocket 2.6 04:28:36 10° N 04:34:09 63° ENE 04:39:41 10° SSE
BREEZE-M DEB (TANK) 3.8 04:32:53 10° NW 04:41:48 79° SW 04:45:01 10° SE
Aurora 2 Rocket 4.0 04:44:54 16° SSE 04:44:54 16° SSE 04:46:08 10° SSE
CZ-4B R/B 4.3 04:40:45 10° NNE 04:44:37 61° ESE 04:48:35 10° S
PAYLOAD B 4.2 04:41:15 10° NNE 04:46:52 88° E 04:52:28 10° SSW
Centaur D AC-28 4.2 03:17:41 10° WSW 04:47:32 72° NNW 04:53:48 10° ENE
Cosmos 1238 Rocket 3.9 04:42:19 11° S 04:48:11 76° W 04:54:51 10° N
DELTA 2 R/B(2) 4.5 04:48:34 46° S 04:48:34 46° S 04:52:17 10° SE
Cosmos 1417 Rocket 4.4 04:43:38 10° S 04:49:45 88° W 04:55:55 10° N
Cosmos 1953 Rocket 3.7 04:49:33 10° S 04:54:01 75° E 04:58:28 10° N
Cosmos 1758 4.1 04:53:15 10° NNW 04:56:30 30° W 04:56:30 30° W
CZ-4B R/B 3.1 04:52:52 10° NNE 04:58:24 87° WNW 05:03:47 10° SSW
Palapa B4 Rocket 4.1 04:56:21 26° WSW 04:59:45 77° S 05:08:41 10° E
NOSS 3-2 (C) 4.5 04:58:35 21° W 05:00:27 24° WNW 05:05:20 10° N
Meteor PRIRODA 3.6 04:57:39 10° N 05:01:20 66° WNW 05:04:17 15° SSW
Cosmos 1244 Rocket 4.4 04:56:43 10° N 05:02:52 86° W 05:09:04 10° S
S3M 3.9 05:00:23 10° S 05:06:33 82° W 05:12:40 10° N
USA 161 2.2 05:03:52 10° SSE 05:06:50 59° E 05:09:50 10° N
OAO 3 Rocket 3.1 05:02:55 12° WNW 05:07:19 86° NNE 05:12:06 10° ESE
Cosmos 1812 Rocket 3.9 05:05:19 10° NNW 05:09:31 42° W 05:13:41 10° SSW
Cosmos 1758 Rocket 3.6 05:05:36 10° SSW 05:09:42 51° W 05:13:55 10° N
Cosmos 1733 4.5 05:12:07 10° NW 05:15:03 21° W 05:16:06 19° WSW
Aureole 2 Rocket 2.8 05:11:35 10° N 05:15:10 65° ENE 05:18:29 10° SSE
CZ-2C R/B 3.6 05:14:16 10° NNE 05:18:35 40° E 05:22:51 10° S
Meteor 2-5 Rocket 3.9 05:13:34 10° SSW 05:18:51 47° W 05:24:09 10° N
IRS-1C Rocket 4.0 05:14:00 10° N 05:19:15 75° WNW 05:24:29 10° SSW
IDEFIX/ARIANE 42P 2.7 05:16:05 10° NNE 05:21:19 80° ESE 05:26:34 10° S
Cosmos 773 Rocket 4.0 05:20:11 10° SSW 05:25:23 87° ESE 05:30:34 10° NNE
Cosmos 1125 Rocket 3.5 05:22:48 10° NNW 05:28:05 74° WSW 05:33:19 10° S
Hubble Space Telescope 1.9 05:29:29 12° W 05:32:33 26° SSW 05:36:01 10° SSE
CENTAUR R/B 3.1 05:29:11 10° WSW 05:34:12 34° WNW 05:39:48 10° N
SJ 16-02 1.8 05:31:13 10° NNW 05:35:19 40° W 05:39:27 10° S
Cosmos 1470 4.4 05:34:25 10° NW 05:36:42 15° W 05:38:59 10° SW
Okean-O 3.2 05:34:20 10° NNE 05:38:43 63° E 05:43:06 10° S
GPS 2-18 Rocket1 3.1 05:36:35 10° WSW 05:40:16 66° S 05:44:01 10° E
Cosmos 44 4.3 05:36:32 10° NW 05:41:09 30° WSW 05:45:47 10° S
Cosmos 2219 3.5 05:36:17 10° SW 05:41:45 50° WNW 05:47:17 10° N
Atlas Centaur 2 3.9 05:34:49 10° SW 05:42:52 46° SSE 05:50:22 10° E
Cosmos 2360 Rocket 2.2 05:41:59 10° NNW 05:47:33 66° WSW 05:53:07 10° S
